Time,TemperatureF,DewpointF,PressureIn,WindDirection,WindDirectionDegrees,WindSpeedMPH,WindSpeedGustMPH,Humidity,HourlyPrecipIn,Conditions,Clouds,dailyrainin,SoftwareType,DateUTC
2013-06-30 00:01:00,68.4,65.7,29.71,SE,125,0.0,0.0,91,0.00,,,0.00,meteohub,2013-06-30 04:01:00,
2013-06-30 00:02:00,68.4,65.7,29.71,SE,125,0.0,0.0,91,0.00,,,0.00,meteohub,2013-06-30 04:02:00,
2013-06-30 00:07:00,68.2,65.5,29.71,SE,125,0.0,1.0,91,0.00,,,0.00,meteohub,2013-06-30 04:07:00,
2013-06-30 00:12:00,68.2,65.8,29.71,SE,125,0.0,1.0,92,0.00,,,0.00,meteohub,2013-06-30 04:12:00,
2013-06-30 00:17:00,68.2,65.8,29.71,SE,125,0.0,1.0,92,0.00,,,0.00,meteohub,2013-06-30 04:17:00,
2013-06-30 00:22:00,68.2,65.8,29.72,SE,125,0.0,0.0,92,0.00,,,0.00,meteohub,2013-06-30 04:22:00,
2013-06-30 00:27:00,68.2,65.8,29.72,SE,125,1.0,0.0,92,0.00,,,0.00,meteohub,2013-06-30 04:27:00,
2013-06-30 00:32:00,68.2,65.8,29.73,SE,125,1.0,2.0,92,0.00,,,0.00,meteohub,2013-06-30 04:32:00,
2013-06-30 00:37:00,68.4,66.2,29.72,SE,132,1.0,2.0,93,0.00,,,0.00,meteohub,2013-06-30 04:37:00,
2013-06-30 00:42:00,68.4,66.2,29.72,NE,47,0.0,2.0,93,0.00,,,0.00,meteohub,2013-06-30 04:42:00,
2013-06-30 00:47:00,68.5,66.4,29.73,SE,136,0.0,2.0,93,0.00,,,0.00,meteohub,2013-06-30 04:47:00,
2013-06-30 00:52:00,68.5,66.4,29.73,SE,136,0.0,2.0,93,0.00,,,0.00,meteohub,2013-06-30 04:52:00,
2013-06-30 00:57:00,68.5,66.4,29.73,SE,136,0.0,2.0,93,0.00,,,0.00,meteohub,2013-06-30 04:57:00,
2013-06-30 01:02:00,68.7,66.6,29.73,SE,136,0.0,1.0,93,0.00,,,0.00,meteohub,2013-06-30 05:02:00,
2013-06-30 01:07:00,68.7,66.6,29.73,SE,136,0.0,0.0,93,0.00,,,0.00,meteohub,2013-06-30 05:07:00,
2013-06-30 01:12:00,68.9,66.7,29.73,SE,136,0.0,1.0,93,0.00,,,0.00,meteohub,2013-06-30 05:12:00,
2013-06-30 01:17:00,69.1,66.9,29.73,SE,136,0.0,1.0,93,0.00,,,0.00,meteohub,2013-06-30 05:17:00,
2013-06-30 01:22:00,69.1,66.9,29.73,SE,136,0.0,1.0,93,0.00,,,0.00,meteohub,2013-06-30 05:22:00,
2013-06-30 01:27:00,69.3,67.1,29.73,SE,136,0.0,0.0,93,0.00,,,0.00,meteohub,2013-06-30 05:27:00,
2013-06-30 01:32:00,69.3,67.1,29.73,SE,136,0.0,1.0,93,0.00,,,0.00,meteohub,2013-06-30 05:32:00,
2013-06-30 01:37:00,69.4,67.3,29.72,South,179,2.0,2.0,93,0.00,,,0.00,meteohub,2013-06-30 05:37:00,
2013-06-30 01:42:00,69.4,67.3,29.72,South,191,1.0,2.0,93,0.00,,,0.00,meteohub,2013-06-30 05:42:00,
2013-06-30 01:47:00,69.4,67.3,29.72,South,191,0.0,2.0,93,0.00,,,0.00,meteohub,2013-06-30 05:47:00,
2013-06-30 01:52:00,69.6,67.5,29.72,South,191,0.0,2.0,93,0.00,,,0.00,meteohub,2013-06-30 05:52:00,
2013-06-30 01:57:00,69.6,67.5,29.72,South,191,0.0,2.0,93,0.00,,,0.00,meteohub,2013-06-30 05:57:00,
2013-06-30 02:02:00,69.6,67.8,29.72,South,191,0.0,1.0,94,0.00,,,0.00,meteohub,2013-06-30 06:02:00,
2013-06-30 02:07:00,69.8,67.6,29.72,South,191,0.0,1.0,93,0.00,,,0.00,meteohub,2013-06-30 06:07:00,
2013-06-30 02:12:00,69.8,67.6,29.72,South,191,0.0,1.0,93,0.00,,,0.00,meteohub,2013-06-30 06:12:00,
2013-06-30 02:17:00,69.8,67.6,29.73,South,191,0.0,0.0,93,0.00,,,0.00,meteohub,2013-06-30 06:17:00,
2013-06-30 02:22:00,70.0,67.8,29.73,South,191,0.0,0.0,93,0.00,,,0.00,meteohub,2013-06-30 06:22:00,
2013-06-30 02:27:00,70.0,68.2,29.73,South,191,0.0,0.0,94,0.00,,,0.00,meteohub,2013-06-30 06:27:00,
2013-06-30 02:32:00,70.0,68.2,29.73,South,191,0.0,1.0,94,0.00,,,0.00,meteohub,2013-06-30 06:32:00,
2013-06-30 02:37:00,70.2,68.4,29.73,South,191,0.0,1.0,94,0.00,,,0.00,meteohub,2013-06-30 06:37:00,
2013-06-30 02:42:00,70.2,68.4,29.73,South,191,0.0,1.0,94,0.00,,,0.00,meteohub,2013-06-30 06:42:00,
2013-06-30 02:47:00,70.2,68.4,29.72,South,191,0.0,1.0,94,0.00,,,0.00,meteohub,2013-06-30 06:47:00,
2013-06-30 02:52:00,70.3,68.5,29.72,South,191,0.0,1.0,94,0.00,,,0.00,meteohub,2013-06-30 06:52:00,
2013-06-30 02:57:00,70.3,68.5,29.72,South,191,0.0,1.0,94,0.00,,,0.00,meteohub,2013-06-30 06:57:00,
2013-06-30 03:02:00,70.5,68.7,29.72,South,191,0.0,1.0,94,0.00,,,0.00,meteohub,2013-06-30 07:02:00,
2013-06-30 03:07:00,70.5,68.7,29.72,South,191,0.0,1.0,94,0.00,,,0.00,meteohub,2013-06-30 07:07:00,
2013-06-30 03:12:00,70.5,68.7,29.72,South,191,0.0,1.0,94,0.00,,,0.00,meteohub,2013-06-30 07:12:00,
2013-06-30 03:17:00,70.5,68.7,29.72,South,191,0.0,1.0,94,0.00,,,0.00,meteohub,2013-06-30 07:17:00,
2013-06-30 03:22:00,70.7,68.9,29.72,South,191,0.0,1.0,94,0.00,,,0.00,meteohub,2013-06-30 07:22:00,
2013-06-30 03:27:00,70.7,68.9,29.72,South,191,0.0,0.0,94,0.00,,,0.00,meteohub,2013-06-30 07:27:00,
2013-06-30 03:32:00,70.9,69.1,29.72,South,191,0.0,0.0,94,0.00,,,0.00,meteohub,2013-06-30 07:32:00,
2013-06-30 03:37:00,70.9,69.1,29.72,South,191,0.0,0.0,94,0.00,,,0.00,meteohub,2013-06-30 07:37:00,
2013-06-30 03:42:00,70.9,69.1,29.72,South,191,0.0,0.0,94,0.00,,,0.00,meteohub,2013-06-30 07:42:00,
2013-06-30 03:47:00,70.9,69.1,29.72,South,191,0.0,0.0,94,0.00,,,0.00,meteohub,2013-06-30 07:47:00,
2013-06-30 03:52:00,70.9,69.1,29.72,South,191,0.0,0.0,94,0.00,,,0.00,meteohub,2013-06-30 07:52:00,
2013-06-30 03:57:00,70.9,69.1,29.72,South,191,0.0,0.0,94,0.00,,,0.00,meteohub,2013-06-30 07:57:00,
2013-06-30 04:02:00,70.9,69.1,29.72,South,191,0.0,0.0,94,0.00,,,0.00,meteohub,2013-06-30 08:02:00,
2013-06-30 04:07:00,71.1,69.3,29.72,South,191,0.0,0.0,94,0.00,,,0.00,meteohub,2013-06-30 08:07:00,
2013-06-30 04:12:00,71.1,69.3,29.72,South,191,0.0,0.0,94,0.00,,,0.00,meteohub,2013-06-30 08:12:00,
2013-06-30 04:17:00,71.1,69.6,29.73,SE,136,0.0,0.0,95,0.00,,,0.00,meteohub,2013-06-30 08:17:00,
2013-06-30 04:22:00,71.1,69.6,29.73,SE,136,0.0,0.0,95,0.00,,,0.00,meteohub,2013-06-30 08:22:00,
2013-06-30 04:27:00,71.1,69.6,29.73,SE,136,0.0,0.0,95,0.00,,,0.00,meteohub,2013-06-30 08:27:00,
2013-06-30 04:32:00,71.2,69.8,29.73,SE,136,0.0,0.0,95,0.00,,,0.00,meteohub,2013-06-30 08:32:00,
2013-06-30 04:37:00,71.2,69.8,29.73,SE,136,0.0,0.0,95,0.00,,,0.00,meteohub,2013-06-30 08:37:00,
2013-06-30 04:42:00,71.2,69.8,29.73,SE,136,0.0,0.0,95,0.00,,,0.00,meteohub,2013-06-30 08:42:00,
2013-06-30 04:47:00,71.2,69.8,29.73,SE,134,0.0,0.0,95,0.00,,,0.00,meteohub,2013-06-30 08:47:00,
2013-06-30 04:52:00,71.2,69.8,29.73,SE,134,0.0,0.0,95,0.00,,,0.00,meteohub,2013-06-30 08:52:00,
2013-06-30 04:57:00,71.4,70.0,29.73,SE,134,0.0,0.0,95,0.00,,,0.00,meteohub,2013-06-30 08:57:00,
2013-06-30 05:02:00,71.4,70.2,29.73,SE,134,0.0,0.0,96,0.00,,,0.00,meteohub,2013-06-30 09:02:00,
2013-06-30 05:07:00,71.4,70.2,29.74,SE,134,0.0,0.0,96,0.00,,,0.00,meteohub,2013-06-30 09:07:00,
2013-06-30 05:12:00,71.6,70.3,29.74,SE,134,0.0,0.0,96,0.00,,,0.00,meteohub,2013-06-30 09:12:00,
2013-06-30 05:17:00,71.6,70.3,29.74,SE,134,0.0,0.0,96,0.00,,,0.00,meteohub,2013-06-30 09:17:00,
2013-06-30 05:22:00,71.6,70.3,29.74,SE,134,0.0,0.0,96,0.00,,,0.00,meteohub,2013-06-30 09:22:00,
2013-06-30 05:27:00,71.4,70.2,29.74,SE,134,0.0,0.0,96,0.00,,,0.00,meteohub,2013-06-30 09:27:00,
2013-06-30 05:32:00,71.4,70.2,29.74,SE,134,0.0,0.0,96,0.00,,,0.00,meteohub,2013-06-30 09:32:00,
2013-06-30 05:37:00,71.4,70.2,29.74,SE,134,0.0,0.0,96,0.00,,,0.00,meteohub,2013-06-30 09:37:00,
2013-06-30 05:42:00,71.4,70.2,29.74,SE,134,0.0,0.0,96,0.00,,,0.00,meteohub,2013-06-30 09:42:00,
2013-06-30 05:47:00,71.6,70.3,29.75,SE,134,0.0,0.0,96,0.00,,,0.00,meteohub,2013-06-30 09:47:00,
2013-06-30 05:52:00,71.6,70.3,29.75,SE,134,0.0,0.0,96,0.00,,,0.00,meteohub,2013-06-30 09:52:00,
2013-06-30 05:57:00,71.6,70.3,29.75,SE,134,0.0,0.0,96,0.00,,,0.00,meteohub,2013-06-30 09:57:00,
2013-06-30 06:02:00,71.8,70.9,29.75,SE,134,0.0,0.0,97,0.00,,,0.00,meteohub,2013-06-30 10:02:00,
2013-06-30 06:07:00,71.8,70.9,29.75,SE,134,0.0,0.0,97,0.00,,,0.00,meteohub,2013-06-30 10:07:00,
2013-06-30 06:12:00,71.8,70.9,29.75,SE,134,0.0,0.0,97,0.00,,,0.00,meteohub,2013-06-30 10:12:00,
2013-06-30 06:17:00,72.0,71.1,29.76,SE,134,0.0,0.0,97,0.00,,,0.00,meteohub,2013-06-30 10:17:00,
2013-06-30 06:22:00,72.0,71.1,29.76,SE,134,0.0,0.0,97,0.00,,,0.00,meteohub,2013-06-30 10:22:00,
2013-06-30 06:27:00,72.1,71.2,29.76,SE,134,0.0,0.0,97,0.00,,,0.00,meteohub,2013-06-30 10:27:00,
2013-06-30 06:32:00,72.1,71.2,29.76,SE,134,0.0,0.0,97,0.00,,,0.00,meteohub,2013-06-30 10:32:00,
2013-06-30 06:37:00,72.1,71.2,29.76,SE,134,0.0,0.0,97,0.00,,,0.00,meteohub,2013-06-30 10:37:00,
2013-06-30 06:42:00,72.1,71.2,29.77,SE,134,0.0,0.0,97,0.00,,,0.00,meteohub,2013-06-30 10:42:00,
2013-06-30 06:47:00,72.3,71.4,29.77,SE,134,0.0,0.0,97,0.00,,,0.00,meteohub,2013-06-30 10:47:00,
2013-06-30 06:52:00,72.3,71.4,29.77,SE,134,0.0,0.0,97,0.00,,,0.00,meteohub,2013-06-30 10:52:00,
2013-06-30 06:57:00,72.7,72.1,29.77,SE,134,0.0,0.0,98,0.00,,,0.00,meteohub,2013-06-30 10:57:00,
2013-06-30 07:02:00,72.7,71.8,29.78,SE,134,0.0,1.0,97,0.00,,,0.00,meteohub,2013-06-30 11:02:00,
2013-06-30 07:07:00,72.7,71.8,29.78,ESE,111,0.0,2.0,97,0.00,,,0.00,meteohub,2013-06-30 11:07:00,
2013-06-30 07:12:00,72.7,71.8,29.78,NE,46,0.0,3.0,97,0.00,,,0.00,meteohub,2013-06-30 11:12:00,
2013-06-30 07:17:00,72.7,71.8,29.78,SE,141,0.0,3.0,97,0.00,,,0.00,meteohub,2013-06-30 11:17:00,
2013-06-30 07:22:00,72.9,72.0,29.78,SE,141,0.0,3.0,97,0.00,,,0.00,meteohub,2013-06-30 11:22:00,
2013-06-30 07:27:00,72.9,72.0,29.78,South,182,1.0,2.0,97,0.00,,,0.00,meteohub,2013-06-30 11:27:00,
2013-06-30 07:33:00,72.9,72.0,29.78,South,182,0.0,3.0,97,0.00,,,0.00,meteohub,2013-06-30 11:33:00,
2013-06-30 07:38:00,72.9,72.0,29.78,South,182,0.0,3.0,97,0.00,,,0.00,meteohub,2013-06-30 11:38:00,
2013-06-30 07:43:00,73.0,72.1,29.78,South,182,1.0,3.0,97,0.00,,,0.00,meteohub,2013-06-30 11:43:00,
2013-06-30 07:48:00,73.2,72.3,29.79,SE,136,0.0,1.0,97,0.00,,,0.00,meteohub,2013-06-30 11:48:00,
2013-06-30 07:53:00,73.2,72.3,29.79,SE,136,1.0,1.0,97,0.00,,,0.00,meteohub,2013-06-30 11:53:00,
2013-06-30 07:58:00,73.6,72.3,29.79,SSE,154,1.0,2.0,96,0.00,,,0.00,meteohub,2013-06-30 11:58:00,
2013-06-30 08:03:00,73.8,72.5,29.79,SSE,154,0.0,2.0,96,0.00,,,0.00,meteohub,2013-06-30 12:03:00,
2013-06-30 08:08:00,73.9,72.7,29.79,SSE,154,0.0,2.0,96,0.00,,,0.00,meteohub,2013-06-30 12:08:00,
2013-06-30 08:13:00,74.1,72.7,29.79,East,91,0.0,2.0,95,0.00,,,0.00,meteohub,2013-06-30 12:13:00,
2013-06-30 08:18:00,74.3,72.5,29.79,East,91,0.0,2.0,94,0.00,,,0.00,meteohub,2013-06-30 12:18:00,
2013-06-30 08:23:00,74.7,72.9,29.79,SE,136,0.0,2.0,94,0.00,,,0.00,meteohub,2013-06-30 12:23:00,
2013-06-30 08:28:00,74.8,73.0,29.79,SE,136,1.0,1.0,94,0.00,,,0.00,meteohub,2013-06-30 12:28:00,
2013-06-30 08:33:00,75.0,72.5,29.79,ENE,71,0.0,2.0,92,0.00,,,0.00,meteohub,2013-06-30 12:33:00,
2013-06-30 08:38:00,75.4,72.9,29.79,ENE,71,1.0,2.0,92,0.00,,,0.00,meteohub,2013-06-30 12:38:00,
2013-06-30 08:43:00,75.6,72.7,29.80,SE,137,1.0,2.0,91,0.00,,,0.00,meteohub,2013-06-30 12:43:00,
2013-06-30 08:48:00,75.7,72.9,29.79,South,188,2.0,2.0,91,0.00,,,0.00,meteohub,2013-06-30 12:48:00,
2013-06-30 08:53:00,75.9,72.9,29.80,SSE,163,0.0,2.0,90,0.00,,,0.00,meteohub,2013-06-30 12:53:00,
2013-06-30 08:58:00,75.9,73.0,29.80,SSE,163,1.0,2.0,91,0.00,,,0.00,meteohub,2013-06-30 12:58:00,
2013-06-30 09:03:00,76.3,73.0,29.80,South,184,1.0,2.0,90,0.00,,,0.00,meteohub,2013-06-30 13:03:00,
2013-06-30 09:08:00,76.5,73.2,29.80,SE,136,0.0,2.0,90,0.00,,,0.00,meteohub,2013-06-30 13:08:00,
2013-06-30 09:13:00,76.5,73.0,29.80,SE,136,1.0,2.0,89,0.00,,,0.00,meteohub,2013-06-30 13:13:00,
2013-06-30 09:18:00,76.6,73.2,29.80,ESE,107,0.0,3.0,89,0.00,,,0.00,meteohub,2013-06-30 13:18:00,
2013-06-30 09:23:00,76.6,72.9,29.80,ESE,107,0.0,3.0,88,0.00,,,0.00,meteohub,2013-06-30 13:23:00,
2013-06-30 09:28:00,76.8,73.0,29.80,SSW,194,1.0,3.0,88,0.00,,,0.00,meteohub,2013-06-30 13:28:00,
2013-06-30 09:33:00,76.8,73.0,29.80,SSW,194,1.0,2.0,88,0.00,,,0.00,meteohub,2013-06-30 13:33:00,
2013-06-30 09:38:00,76.8,73.0,29.80,SSE,148,1.0,2.0,88,0.00,,,0.00,meteohub,2013-06-30 13:38:00,
2013-06-30 09:43:00,76.8,73.0,29.80,SSE,148,0.0,2.0,88,0.00,,,0.00,meteohub,2013-06-30 13:43:00,
2013-06-30 09:48:00,76.8,73.0,29.79,SSE,157,0.0,2.0,88,0.00,,,0.00,meteohub,2013-06-30 13:48:00,
2013-06-30 09:53:00,76.8,72.7,29.79,SSE,157,1.0,2.0,87,0.00,,,0.00,meteohub,2013-06-30 13:53:00,
2013-06-30 09:58:00,76.8,72.7,29.80,SSE,157,1.0,2.0,87,0.00,,,0.00,meteohub,2013-06-30 13:58:00,
2013-06-30 10:03:00,76.8,73.0,29.80,SSE,157,1.0,2.0,88,0.00,,,0.00,meteohub,2013-06-30 14:03:00,
2013-06-30 10:08:00,77.0,73.2,29.80,ESE,113,1.0,2.0,88,0.00,,,0.00,meteohub,2013-06-30 14:08:00,
2013-06-30 10:13:00,77.2,73.0,29.80,South,174,0.0,2.0,87,0.00,,,0.00,meteohub,2013-06-30 14:13:00,
2013-06-30 10:18:00,77.2,73.0,29.80,ESE,121,0.0,2.0,87,0.00,,,0.00,meteohub,2013-06-30 14:18:00,
2013-06-30 10:23:00,77.4,72.9,29.80,SE,126,0.0,2.0,86,0.00,,,0.00,meteohub,2013-06-30 14:23:00,
2013-06-30 10:28:00,77.4,72.9,29.80,SE,126,0.0,2.0,86,0.00,,,0.00,meteohub,2013-06-30 14:28:00,
2013-06-30 10:33:00,77.4,73.2,29.80,ESE,107,2.0,2.0,87,0.00,,,0.00,meteohub,2013-06-30 14:33:00,
2013-06-30 10:38:00,77.4,72.9,29.81,WSW,237,0.0,4.0,86,0.00,,,0.00,meteohub,2013-06-30 14:38:00,
2013-06-30 10:43:00,77.4,73.2,29.81,SW,228,1.0,4.0,87,0.00,,,0.00,meteohub,2013-06-30 14:43:00,
2013-06-30 10:48:00,77.4,72.9,29.81,SSE,150,0.0,4.0,86,0.00,,,0.00,meteohub,2013-06-30 14:48:00,
2013-06-30 10:53:00,77.4,72.9,29.81,SE,146,0.0,3.0,86,0.00,,,0.00,meteohub,2013-06-30 14:53:00,
2013-06-30 10:59:00,77.2,73.0,29.80,SE,146,0.0,3.0,87,0.00,,,0.00,meteohub,2013-06-30 14:59:00,
2013-06-30 11:04:00,77.4,73.2,29.80,SSE,148,1.0,3.0,87,0.00,,,0.00,meteohub,2013-06-30 15:04:00,
2013-06-30 11:09:00,77.4,73.2,29.80,SE,138,2.0,3.0,87,0.00,,,0.00,meteohub,2013-06-30 15:09:00,
2013-06-30 11:14:00,78.4,74.7,29.79,SE,142,1.0,3.0,88,0.00,,,0.00,meteohub,2013-06-30 15:14:00,
2013-06-30 11:19:00,79.3,74.1,29.79,SE,132,2.0,3.0,84,0.00,,,0.00,meteohub,2013-06-30 15:19:00,
2013-06-30 11:24:00,80.1,74.5,29.79,SE,130,1.0,5.0,83,0.00,,,0.00,meteohub,2013-06-30 15:24:00,
2013-06-30 11:29:00,80.1,73.8,29.79,SSE,160,1.0,5.0,81,0.00,,,0.00,meteohub,2013-06-30 15:29:00,
2013-06-30 11:34:00,79.9,73.2,29.79,SE,126,0.0,5.0,80,0.00,,,0.00,meteohub,2013-06-30 15:34:00,
2013-06-30 11:39:00,79.5,73.2,29.79,SSE,159,2.0,5.0,81,0.00,,,0.00,meteohub,2013-06-30 15:39:00,
2013-06-30 11:44:00,80.1,74.1,29.79,SSE,150,0.0,4.0,82,0.00,,,0.00,meteohub,2013-06-30 15:44:00,
2013-06-30 11:49:00,80.4,74.1,29.79,SE,145,0.0,4.0,81,0.00,,,0.00,meteohub,2013-06-30 15:49:00,
2013-06-30 11:54:00,80.4,74.1,29.79,SSW,198,1.0,4.0,81,0.00,,,0.00,meteohub,2013-06-30 15:54:00,
2013-06-30 11:59:00,80.2,73.9,29.79,East,93,0.0,3.0,81,0.00,,,0.00,meteohub,2013-06-30 15:59:00,
2013-06-30 12:04:00,80.1,74.1,29.79,South,171,1.0,2.0,82,0.00,,,0.00,meteohub,2013-06-30 16:04:00,
2013-06-30 12:09:00,79.5,73.2,29.79,SE,125,1.0,3.0,81,0.00,,,0.00,meteohub,2013-06-30 16:09:00,
2013-06-30 12:14:00,79.3,73.0,29.79,SSE,154,0.0,3.0,81,0.00,,,0.00,meteohub,2013-06-30 16:14:00,
2013-06-30 12:19:00,79.2,73.2,29.80,SSE,154,2.0,3.0,82,0.00,,,0.00,meteohub,2013-06-30 16:19:00,
2013-06-30 12:24:00,79.0,73.0,29.80,ESE,121,3.0,3.0,82,0.00,,,0.00,meteohub,2013-06-30 16:24:00,
2013-06-30 12:29:00,78.4,72.9,29.81,South,171,2.0,5.0,83,0.00,,,0.00,meteohub,2013-06-30 16:29:00,
2013-06-30 12:34:00,76.5,70.9,29.81,SSW,200,2.0,5.0,83,0.01,,,0.01,meteohub,2013-06-30 16:34:00,
2013-06-30 12:39:00,74.8,70.7,29.81,East,92,0.0,5.0,87,0.08,,,0.08,meteohub,2013-06-30 16:39:00,
2013-06-30 12:44:00,73.6,70.2,29.81,SSE,157,2.0,4.0,89,0.11,,,0.11,meteohub,2013-06-30 16:44:00,
2013-06-30 12:49:00,72.3,68.9,29.81,South,174,1.0,4.0,89,0.12,,,0.12,meteohub,2013-06-30 16:49:00,
2013-06-30 12:54:00,71.8,69.1,29.81,East,98,3.0,3.0,91,0.12,,,0.12,meteohub,2013-06-30 16:54:00,
2013-06-30 12:59:00,71.6,69.8,29.81,SE,130,0.0,3.0,94,0.12,,,0.12,meteohub,2013-06-30 16:59:00,
2013-06-30 13:04:00,72.0,70.5,29.80,ENE,78,1.0,3.0,95,0.12,,,0.12,meteohub,2013-06-30 17:04:00,
2013-06-30 13:09:00,72.0,70.2,29.81,ESE,119,1.0,3.0,94,0.12,,,0.12,meteohub,2013-06-30 17:09:00,
2013-06-30 13:14:00,72.1,70.3,29.81,South,174,1.0,3.0,94,0.12,,,0.12,meteohub,2013-06-30 17:14:00,
2013-06-30 13:19:00,72.1,70.3,29.81,SSE,150,0.0,3.0,94,0.12,,,0.12,meteohub,2013-06-30 17:19:00,
2013-06-30 13:24:00,72.7,70.9,29.81,SSE,155,2.0,3.0,94,0.12,,,0.12,meteohub,2013-06-30 17:24:00,
2013-06-30 13:29:00,73.0,70.9,29.80,NE,49,1.0,3.0,93,0.12,,,0.12,meteohub,2013-06-30 17:29:00,
2013-06-30 13:34:00,73.6,71.8,29.80,ESE,108,0.0,3.0,94,0.10,,,0.12,meteohub,2013-06-30 17:34:00,
2013-06-30 13:39:00,73.8,70.9,29.80,SSE,157,1.0,3.0,91,0.04,,,0.12,meteohub,2013-06-30 17:39:00,
2013-06-30 13:44:00,73.9,71.4,29.80,SE,141,1.0,3.0,92,0.01,,,0.12,meteohub,2013-06-30 17:44:00,
2013-06-30 13:49:00,74.1,71.1,29.80,SSE,154,1.0,4.0,90,0.00,,,0.12,meteohub,2013-06-30 17:49:00,
2013-06-30 13:54:00,74.7,72.1,29.80,SSE,161,0.0,4.0,92,0.00,,,0.12,meteohub,2013-06-30 17:54:00,
2013-06-30 13:59:00,75.2,71.8,29.81,SE,128,1.0,4.0,89,0.00,,,0.12,meteohub,2013-06-30 17:59:00,
2013-06-30 14:05:00,75.7,72.3,29.81,SE,142,2.0,5.0,89,0.00,,,0.12,meteohub,2013-06-30 18:05:00,
2013-06-30 14:10:00,76.3,72.5,29.81,SSE,167,3.0,5.0,88,0.00,,,0.12,meteohub,2013-06-30 18:10:00,
2013-06-30 14:15:00,76.5,72.7,29.81,SSE,161,1.0,6.0,88,0.00,,,0.12,meteohub,2013-06-30 18:15:00,
2013-06-30 14:20:00,76.5,71.6,29.81,NE,54,0.0,6.0,85,0.00,,,0.12,meteohub,2013-06-30 18:20:00,
2013-06-30 14:25:00,76.3,70.7,29.81,SSE,159,1.0,6.0,83,0.00,,,0.12,meteohub,2013-06-30 18:25:00,
2013-06-30 14:30:00,75.7,70.9,29.81,SE,139,1.0,5.0,85,0.00,,,0.12,meteohub,2013-06-30 18:30:00,
2013-06-30 14:35:00,75.4,69.8,29.81,South,174,2.0,4.0,83,0.00,,,0.12,meteohub,2013-06-30 18:35:00,
2013-06-30 14:40:00,75.0,69.4,29.81,SSE,168,2.0,6.0,83,0.00,,,0.12,meteohub,2013-06-30 18:40:00,
2013-06-30 14:45:00,74.7,69.1,29.81,East,99,2.0,7.0,83,0.00,,,0.12,meteohub,2013-06-30 18:45:00,
2013-06-30 14:50:00,74.1,69.3,29.81,East,96,2.0,8.0,85,0.00,,,0.12,meteohub,2013-06-30 18:50:00,
2013-06-30 14:55:00,73.8,68.5,29.81,SE,124,2.0,8.0,84,0.00,,,0.12,meteohub,2013-06-30 18:55:00,
2013-06-30 15:00:00,73.8,68.9,29.81,SSE,167,2.0,8.0,85,0.00,,,0.12,meteohub,2013-06-30 19:00:00,
2013-06-30 15:05:00,73.6,69.4,29.81,SE,138,0.0,7.0,87,0.00,,,0.12,meteohub,2013-06-30 19:05:00,
2013-06-30 15:10:00,73.8,69.3,29.81,SSE,152,2.0,7.0,86,0.00,,,0.12,meteohub,2013-06-30 19:10:00,
2013-06-30 15:15:00,73.8,69.3,29.81,SSW,200,1.0,4.0,86,0.00,,,0.12,meteohub,2013-06-30 19:15:00,
2013-06-30 15:20:00,73.9,69.4,29.81,SSE,155,0.0,4.0,86,0.00,,,0.12,meteohub,2013-06-30 19:20:00,
2013-06-30 15:25:00,74.1,69.3,29.81,SSE,159,1.0,4.0,85,0.00,,,0.12,meteohub,2013-06-30 19:25:00,
2013-06-30 15:30:00,74.5,69.3,29.81,SSE,150,2.0,5.0,84,0.00,,,0.12,meteohub,2013-06-30 19:30:00,
2013-06-30 15:35:00,74.8,70.0,29.81,SSE,160,2.0,5.0,85,0.00,,,0.12,meteohub,2013-06-30 19:35:00,
2013-06-30 15:40:00,75.4,69.4,29.81,SE,128,1.0,8.0,82,0.00,,,0.12,meteohub,2013-06-30 19:40:00,
2013-06-30 15:45:00,75.6,70.3,29.81,ESE,115,1.0,8.0,84,0.00,,,0.12,meteohub,2013-06-30 19:45:00,
2013-06-30 15:50:00,75.6,69.6,29.81,SE,142,0.0,8.0,82,0.00,,,0.12,meteohub,2013-06-30 19:50:00,
2013-06-30 15:55:00,75.7,70.2,29.81,SSE,152,1.0,7.0,83,0.00,,,0.12,meteohub,2013-06-30 19:55:00,
2013-06-30 16:00:00,75.9,70.3,29.81,SE,146,2.0,7.0,83,0.00,,,0.12,meteohub,2013-06-30 20:00:00,
2013-06-30 16:05:00,76.1,69.8,29.81,SSE,163,0.0,5.0,81,0.00,,,0.12,meteohub,2013-06-30 20:05:00,
2013-06-30 16:10:00,76.3,70.3,29.81,SSE,163,1.0,4.0,82,0.00,,,0.12,meteohub,2013-06-30 20:10:00,
2013-06-30 16:15:00,76.3,70.3,29.81,SE,129,1.0,7.0,82,0.00,,,0.12,meteohub,2013-06-30 20:15:00,
2013-06-30 16:20:00,76.3,69.6,29.80,WSW,240,1.0,7.0,80,0.00,,,0.12,meteohub,2013-06-30 20:20:00,
2013-06-30 16:25:00,76.5,69.8,29.80,South,184,1.0,7.0,80,0.00,,,0.12,meteohub,2013-06-30 20:25:00,
2013-06-30 16:30:00,76.5,69.1,29.81,South,182,2.0,6.0,78,0.00,,,0.12,meteohub,2013-06-30 20:30:00,
2013-06-30 16:35:00,76.6,69.6,29.81,SE,125,1.0,6.0,79,0.00,,,0.12,meteohub,2013-06-30 20:35:00,
2013-06-30 16:40:00,76.6,69.3,29.81,NE,54,1.0,6.0,78,0.00,,,0.12,meteohub,2013-06-30 20:40:00,
2013-06-30 16:45:00,76.8,69.8,29.81,ESE,118,2.0,8.0,79,0.00,,,0.12,meteohub,2013-06-30 20:45:00,
2013-06-30 16:50:00,76.8,69.4,29.81,SE,139,1.0,8.0,78,0.00,,,0.12,meteohub,2013-06-30 20:50:00,
2013-06-30 16:55:00,76.6,69.3,29.81,SSE,159,1.0,8.0,78,0.00,,,0.12,meteohub,2013-06-30 20:55:00,
2013-06-30 17:00:00,76.3,69.6,29.81,SE,144,0.0,3.0,80,0.00,,,0.12,meteohub,2013-06-30 21:00:00,
2013-06-30 17:06:00,76.1,69.1,29.81,SE,138,0.0,4.0,79,0.00,,,0.12,meteohub,2013-06-30 21:06:00,
2013-06-30 17:11:00,75.9,68.9,29.81,SE,140,0.0,4.0,79,0.00,,,0.12,meteohub,2013-06-30 21:11:00,
2013-06-30 17:16:00,75.7,69.1,29.81,SE,132,2.0,4.0,80,0.00,,,0.12,meteohub,2013-06-30 21:16:00,
2013-06-30 17:21:00,75.6,69.6,29.81,South,178,1.0,4.0,82,0.00,,,0.12,meteohub,2013-06-30 21:21:00,
2013-06-30 17:26:00,75.6,69.6,29.81,SSE,157,0.0,4.0,82,0.00,,,0.12,meteohub,2013-06-30 21:26:00,
2013-06-30 17:31:00,75.4,69.8,29.81,SE,134,1.0,4.0,83,0.00,,,0.12,meteohub,2013-06-30 21:31:00,
2013-06-30 17:36:00,75.4,69.8,29.81,SE,134,0.0,2.0,83,0.00,,,0.12,meteohub,2013-06-30 21:36:00,
2013-06-30 17:41:00,75.4,70.2,29.81,South,169,1.0,2.0,84,0.00,,,0.12,meteohub,2013-06-30 21:41:00,
2013-06-30 17:46:00,75.4,70.2,29.81,SSE,168,1.0,3.0,84,0.00,,,0.12,meteohub,2013-06-30 21:46:00,
2013-06-30 17:51:00,75.6,70.3,29.81,East,94,0.0,5.0,84,0.00,,,0.12,meteohub,2013-06-30 21:51:00,
2013-06-30 17:56:00,75.7,70.9,29.81,East,94,0.0,5.0,85,0.00,,,0.12,meteohub,2013-06-30 21:56:00,
2013-06-30 18:01:00,75.7,70.9,29.81,SSE,156,0.0,5.0,85,0.00,,,0.12,meteohub,2013-06-30 22:01:00,
2013-06-30 18:06:00,75.9,71.1,29.82,ESE,121,1.0,2.0,85,0.00,,,0.12,meteohub,2013-06-30 22:06:00,
2013-06-30 18:11:00,76.3,71.4,29.82,SSE,165,0.0,3.0,85,0.00,,,0.12,meteohub,2013-06-30 22:11:00,
2013-06-30 18:16:00,76.5,71.6,29.82,SSE,148,1.0,3.0,85,0.00,,,0.12,meteohub,2013-06-30 22:16:00,
2013-06-30 18:21:00,76.6,71.4,29.82,SSE,156,0.0,3.0,84,0.00,,,0.12,meteohub,2013-06-30 22:21:00,
2013-06-30 18:26:00,76.8,71.2,29.82,SE,135,1.0,3.0,83,0.00,,,0.12,meteohub,2013-06-30 22:26:00,
2013-06-30 18:31:00,76.8,71.2,29.81,SSE,149,1.0,3.0,83,0.00,,,0.12,meteohub,2013-06-30 22:31:00,
2013-06-30 18:36:00,76.6,71.4,29.82,SE,138,4.0,4.0,84,0.00,,,0.12,meteohub,2013-06-30 22:36:00,
2013-06-30 18:41:00,76.6,71.1,29.82,SE,124,0.0,5.0,83,0.00,,,0.12,meteohub,2013-06-30 22:41:00,
2013-06-30 18:46:00,76.5,70.9,29.82,SSW,194,0.0,5.0,83,0.00,,,0.12,meteohub,2013-06-30 22:46:00,
2013-06-30 18:51:00,76.5,71.2,29.82,SE,141,1.0,5.0,84,0.00,,,0.12,meteohub,2013-06-30 22:51:00,
2013-06-30 18:56:00,76.3,71.4,29.82,SE,146,1.0,6.0,85,0.00,,,0.12,meteohub,2013-06-30 22:56:00,
2013-06-30 19:01:00,76.3,71.4,29.82,SSE,150,0.0,6.0,85,0.00,,,0.12,meteohub,2013-06-30 23:01:00,
2013-06-30 19:06:00,76.1,71.2,29.82,SSE,150,1.0,6.0,85,0.00,,,0.12,meteohub,2013-06-30 23:06:00,
2013-06-30 19:11:00,75.9,71.1,29.83,South,175,1.0,2.0,85,0.00,,,0.12,meteohub,2013-06-30 23:11:00,
2013-06-30 19:16:00,75.9,71.4,29.83,South,177,0.0,2.0,86,0.00,,,0.12,meteohub,2013-06-30 23:16:00,
2013-06-30 19:21:00,75.7,71.2,29.83,ESE,108,0.0,2.0,86,0.00,,,0.12,meteohub,2013-06-30 23:21:00,
2013-06-30 19:26:00,75.6,71.1,29.83,SE,146,1.0,2.0,86,0.00,,,0.12,meteohub,2013-06-30 23:26:00,
2013-06-30 19:31:00,75.4,70.9,29.83,SE,135,1.0,2.0,86,0.00,,,0.12,meteohub,2013-06-30 23:31:00,
2013-06-30 19:36:00,75.4,71.2,29.83,ESE,115,2.0,5.0,87,0.00,,,0.12,meteohub,2013-06-30 23:36:00,
2013-06-30 19:41:00,75.2,71.1,29.84,SE,129,2.0,5.0,87,0.00,,,0.12,meteohub,2013-06-30 23:41:00,
2013-06-30 19:46:00,75.0,71.2,29.85,SE,134,0.0,5.0,88,0.00,,,0.12,meteohub,2013-06-30 23:46:00,
2013-06-30 19:51:00,74.8,71.1,29.85,South,171,1.0,4.0,88,0.00,,,0.12,meteohub,2013-06-30 23:51:00,
2013-06-30 19:56:00,74.8,71.1,29.85,South,175,1.0,4.0,88,0.00,,,0.12,meteohub,2013-06-30 23:56:00,
2013-06-30 20:01:00,74.7,71.2,29.84,SSE,165,1.0,3.0,89,0.00,,,0.12,meteohub,2013-07-01 00:01:00,
2013-06-30 20:06:00,74.7,71.2,29.84,SE,137,1.0,2.0,89,0.00,,,0.12,meteohub,2013-07-01 00:06:00,
2013-06-30 20:11:00,74.5,71.1,29.85,SSE,155,0.0,2.0,89,0.00,,,0.12,meteohub,2013-07-01 00:11:00,
2013-06-30 20:16:00,74.5,71.1,29.85,SSE,155,1.0,2.0,89,0.00,,,0.12,meteohub,2013-07-01 00:16:00,
2013-06-30 20:21:00,74.3,70.9,29.85,SSE,155,0.0,2.0,89,0.00,,,0.12,meteohub,2013-07-01 00:21:00,
2013-06-30 20:26:00,74.1,70.7,29.85,SSE,155,1.0,1.0,89,0.00,,,0.12,meteohub,2013-07-01 00:26:00,
2013-06-30 20:31:00,73.9,70.5,29.85,SSE,155,0.0,1.0,89,0.00,,,0.12,meteohub,2013-07-01 00:31:00,
2013-06-30 20:36:00,73.9,70.5,29.86,SSE,155,0.0,1.0,89,0.00,,,0.12,meteohub,2013-07-01 00:36:00,
2013-06-30 20:41:00,73.8,70.7,29.85,SSE,157,0.0,1.0,90,0.00,,,0.12,meteohub,2013-07-01 00:41:00,
2013-06-30 20:46:00,73.6,70.5,29.86,SSE,157,0.0,2.0,90,0.00,,,0.12,meteohub,2013-07-01 00:46:00,
2013-06-30 20:52:00,73.6,70.5,29.86,SSE,157,0.0,2.0,90,0.00,,,0.12,meteohub,2013-07-01 00:52:00,
2013-06-30 20:56:00,73.6,70.5,29.86,SSE,157,0.0,2.0,90,0.00,,,0.12,meteohub,2013-07-01 00:56:00,
2013-06-30 21:02:00,73.6,70.5,29.86,SSE,157,0.0,1.0,90,0.00,,,0.12,meteohub,2013-07-01 01:02:00,
2013-06-30 21:07:00,73.2,70.5,29.86,SSE,157,0.0,1.0,91,0.00,,,0.12,meteohub,2013-07-01 01:07:00,
2013-06-30 21:12:00,73.2,70.2,29.86,SSE,157,0.0,1.0,90,0.00,,,0.12,meteohub,2013-07-01 01:12:00,
2013-06-30 21:17:00,73.2,70.5,29.87,SSE,157,0.0,1.0,91,0.00,,,0.12,meteohub,2013-07-01 01:17:00,
2013-06-30 21:22:00,73.0,70.3,29.87,SSE,157,0.0,1.0,91,0.00,,,0.12,meteohub,2013-07-01 01:22:00,
2013-06-30 21:27:00,73.0,70.5,29.87,SSE,157,0.0,1.0,92,0.00,,,0.12,meteohub,2013-07-01 01:27:00,
2013-06-30 21:32:00,73.0,70.5,29.87,SSE,157,0.0,1.0,92,0.00,,,0.12,meteohub,2013-07-01 01:32:00,
2013-06-30 21:37:00,72.9,70.3,29.87,SSE,157,0.0,1.0,92,0.00,,,0.12,meteohub,2013-07-01 01:37:00,
2013-06-30 21:42:00,72.9,70.3,29.87,SSE,157,0.0,1.0,92,0.00,,,0.12,meteohub,2013-07-01 01:42:00,
2013-06-30 21:47:00,72.9,70.3,29.87,SSE,157,1.0,1.0,92,0.00,,,0.12,meteohub,2013-07-01 01:47:00,
2013-06-30 21:52:00,73.0,70.5,29.88,SSE,157,1.0,1.0,92,0.00,,,0.12,meteohub,2013-07-01 01:52:00,
2013-06-30 21:57:00,73.0,70.5,29.88,SSE,157,0.0,2.0,92,0.00,,,0.12,meteohub,2013-07-01 01:57:00,
2013-06-30 22:02:00,73.0,70.5,29.87,SSE,157,1.0,2.0,92,0.00,,,0.12,meteohub,2013-07-01 02:02:00,
2013-06-30 22:07:00,72.9,70.3,29.88,SSE,157,0.0,2.0,92,0.00,,,0.12,meteohub,2013-07-01 02:07:00,
2013-06-30 22:12:00,72.9,70.3,29.88,SSE,157,0.0,1.0,92,0.00,,,0.12,meteohub,2013-07-01 02:12:00,
2013-06-30 22:17:00,72.9,70.3,29.88,SSE,157,0.0,1.0,92,0.00,,,0.12,meteohub,2013-07-01 02:17:00,
2013-06-30 22:22:00,72.9,70.3,29.88,SSE,149,1.0,2.0,92,0.00,,,0.12,meteohub,2013-07-01 02:22:00,
2013-06-30 22:27:00,72.9,70.3,29.88,SSE,149,0.0,2.0,92,0.00,,,0.12,meteohub,2013-07-01 02:27:00,
2013-06-30 22:32:00,72.9,70.3,29.88,SSE,149,0.0,2.0,92,0.00,,,0.12,meteohub,2013-07-01 02:32:00,
2013-06-30 22:37:00,72.9,70.3,29.88,SSE,149,0.0,1.0,92,0.00,,,0.12,meteohub,2013-07-01 02:37:00,
2013-06-30 22:42:00,72.9,70.3,29.88,SSE,149,0.0,1.0,92,0.00,,,0.12,meteohub,2013-07-01 02:42:00,
2013-06-30 22:47:00,72.9,70.3,29.88,SSE,149,0.0,1.0,92,0.00,,,0.12,meteohub,2013-07-01 02:47:00,
2013-06-30 22:52:00,72.9,70.3,29.88,SSE,149,1.0,1.0,92,0.00,,,0.12,meteohub,2013-07-01 02:52:00,
2013-06-30 22:57:00,72.9,70.7,29.88,SSE,149,0.0,1.0,93,0.00,,,0.12,meteohub,2013-07-01 02:57:00,
2013-06-30 23:02:00,72.9,70.7,29.88,SSE,149,1.0,1.0,93,0.00,,,0.12,meteohub,2013-07-01 03:02:00,
2013-06-30 23:07:00,72.9,70.7,29.88,SSE,149,0.0,1.0,93,0.00,,,0.12,meteohub,2013-07-01 03:07:00,
2013-06-30 23:12:00,72.9,70.7,29.88,SSE,149,0.0,1.0,93,0.00,,,0.12,meteohub,2013-07-01 03:12:00,
2013-06-30 23:17:00,72.9,70.7,29.88,South,172,0.0,2.0,93,0.00,,,0.12,meteohub,2013-07-01 03:17:00,
2013-06-30 23:22:00,72.9,70.7,29.88,South,172,1.0,2.0,93,0.00,,,0.12,meteohub,2013-07-01 03:22:00,
2013-06-30 23:27:00,72.7,70.5,29.88,South,172,0.0,2.0,93,0.00,,,0.12,meteohub,2013-07-01 03:27:00,
2013-06-30 23:32:00,72.7,70.9,29.88,South,172,0.0,1.0,94,0.00,,,0.12,meteohub,2013-07-01 03:32:00,
2013-06-30 23:37:00,72.7,70.9,29.88,South,172,0.0,1.0,94,0.00,,,0.12,meteohub,2013-07-01 03:37:00,
2013-06-30 23:42:00,72.7,70.9,29.88,South,172,0.0,1.0,94,0.00,,,0.12,meteohub,2013-07-01 03:42:00,
2013-06-30 23:47:00,72.7,70.9,29.88,South,172,0.0,1.0,94,0.00,,,0.12,meteohub,2013-07-01 03:47:00,
2013-06-30 23:52:00,72.7,70.9,29.88,South,172,0.0,1.0,94,0.00,,,0.12,meteohub,2013-07-01 03:52:00,
2013-06-30 23:57:00,72.7,70.9,29.88,South,172,0.0,1.0,94,0.00,,,0.12,meteohub,2013-07-01 03:57:00,